Location: *
(43.7000°S, 168.7000°W)
Time: 13:26:23
(UTC+00:00)

Cosmos 841 Rocket - Pass Details

Date: 07 July 2020
Orbit: 747 x 772 km, 74.0° (Epoch: 04 August)

Event Time Altitude Azimuth Distance (km) Brightness Sun altitude
Rises 17:50:23 0° 351° (N) 3,225 6.9 -10.1°
Reaches altitude 10° 17:52:45 10° 354° (N) 2,310 6.2 -9.7°
Maximum altitude 17:57:56 63° 74° (ENE) 870 4.1 -8.8°
Drops below altitude 10° 18:03:12 10° 153° (SSE) 2,350 6.1 -8.0°
Sets 18:05:38 0° 156° (SSE) 3,285 6.8 -7.6°
